New Orleans Lakefront, LA

2:07 AM CDT on March 24, 2017 (GMT -0500)
Lakefront

Weather History for KNEW - February, 2014

Change the Weather History Date:

Tuesday, February 11, 2014

  Actual Average Record
Temperature  
Mean Temperature 45 °F 56 °F  
Max Temperature 50 °F 65 °F 81 °F (1999)
Min Temperature 40 °F 47 °F 27 °F (1980)
Degree Days  
Heating Degree Days 20 10  
Month to date heating degree days 130 116  
Since 1 July heating degree days 1217 972  
Cooling Degree Days 0 1  
Month to date cooling degree days 3 11  
Year to date cooling degree days 3 27  
Moisture  
Dew Point 43 °F    
Average Humidity 95    
Maximum Humidity 100    
Minimum Humidity 89    
Precipitation  
Precipitation 0.60 in 0.20 in 1.61 in (1963)
Month to date precipitation 1.84 2.17  
Year to date precipitation 4.56 7.32  
Snow  
Snow 0.00 in - - ()
Month to date snowfall 0.0  
Since 1 July snowfall T  
Snow Depth 0.00 in    
Sea Level Pressure  
Sea Level Pressure 30.06 in    
Wind  
Wind Speed 15 mph (NNE)    
Max Wind Speed 22 mph    
Max Gust Speed 28 mph    
Visibility 5 miles    
Events Rain , Thunderstorm    
T = Trace of Precipitation, MM = Missing Value Source: NWS Daily Summary

Daily Weather History Graph

Daily Weather History Graph

Search for Another Location

Airport or City:

Trip Planner

Search our weather history database for the weather conditions in past years. The results will help you decide how hot, cold, wet, or windy it might be!

Date:

Astronomy

Feb. 11, 2014 Rise Set
Actual Time 6:43 AM CST 5:45 PM CST
Civil Twilight 6:18 AM CST 6:10 PM CST
Nautical Twilight 5:50 AM CST 6:38 PM CST
Astronomical Twilight 5:22 AM CST 7:06 PM CST
Moon 3:11 PM CST (2/11) 4:14 AM CST (2/11)
Length of Visible Light 11h 51m
Length of Day
11h 02m
Waxing Gibbous, 91% of the Moon is Illuminated
Feb 11
Waxing Gibbous
Feb 14
Full
Feb 22
Last Quarter
Mar 1
New
Mar 8
First Quarter

Hourly Weather History & Observations

Time (CST) Temp. Windchill Dew Point Humidity Pressure Visibility Wind Dir Wind Speed Gust Speed Precip Events Conditions
12:53 AM 51.1 °F - 48.9 °F 92% 30.04 in 10.0 mi NE 11.5 mph - N/A   Overcast
1:13 AM 51.1 °F - 48.9 °F 92% 30.05 in 9.0 mi NE 11.5 mph - N/A   Overcast
1:49 AM 51.8 °F - 48.2 °F 88% 30.03 in 1.8 mi ENE 13.8 mph - N/A   Overcast
1:53 AM 51.1 °F - 48.9 °F 92% 30.01 in 1.2 mi ENE 13.8 mph - N/A   Overcast
2:04 AM 51.1 °F - 50.0 °F 96% 30.02 in 0.8 mi ENE 12.7 mph - N/A   Mist
2:53 AM 50.0 °F - 50.0 °F 100% 30.03 in 0.8 mi NNE 9.2 mph - N/A   Mist
3:13 AM 50.0 °F - 48.9 °F 96% 30.04 in 1.2 mi NE 12.7 mph - N/A   Overcast
3:20 AM 50.0 °F - 48.9 °F 96% 30.03 in 3.0 mi NE 11.5 mph - N/A   Overcast
3:53 AM 48.9 °F - 48.0 °F 97% 30.01 in 2.5 mi ENE 11.5 mph - N/A   Overcast
4:04 AM 48.9 °F - 48.0 °F 97% 30.03 in 1.2 mi NE 16.1 mph - N/A   Overcast
4:35 AM 48.0 °F - 46.9 °F 96% 30.06 in 2.5 mi North 16.1 mph - N/A   Overcast
4:43 AM 46.9 °F - 46.9 °F 100% 30.06 in 4.0 mi North 16.1 mph - 0.00 in Rain Light Rain
4:53 AM 46.9 °F - 46.0 °F 97% 30.05 in 5.0 mi North 17.3 mph - 0.00 in Rain Light Rain
5:40 AM 45.0 °F 37.1 °F 43.0 °F 93% 30.08 in 5.0 mi North 19.6 mph - 0.01 in Rain Light Rain
5:53 AM 45.0 °F 37.1 °F 42.1 °F 90% 30.08 in 10.0 mi North 19.6 mph - 0.01 in   Overcast
6:38 AM 43.0 °F 34.2 °F 41.0 °F 93% 30.11 in 10.0 mi North 20.7 mph - 0.02 in Rain Light Rain
6:45 AM 43.0 °F 34.2 °F 39.9 °F 89% 30.11 in 10.0 mi North 20.7 mph - 0.02 in Rain Light Rain
6:53 AM 43.0 °F 35.4 °F 39.9 °F 89% 30.09 in 8.0 mi North 16.1 mph - 0.04 in Rain Rain
7:08 AM 43.0 °F 35.4 °F 39.9 °F 89% 30.11 in 3.0 mi NE 16.1 mph - 0.06 in Rain Heavy Rain
7:12 AM 43.0 °F 34.8 °F 41.0 °F 93% 30.09 in 2.0 mi NE 18.4 mph - 0.11 in Rain Heavy Rain
7:28 AM 43.0 °F 34.8 °F 41.0 °F 93% 30.11 in 2.0 mi NNE 18.4 mph - 0.22 in Rain Rain
7:34 AM 43.0 °F 34.5 °F 41.0 °F 93% 30.11 in 3.0 mi NNE 19.6 mph - 0.25 in Rain Heavy Rain
7:53 AM 43.0 °F 34.5 °F 41.0 °F 93% 30.09 in 4.0 mi NNE 19.6 mph - 0.28 in Rain Light Rain
8:53 AM 44.1 °F 36.2 °F 41.0 °F 89% 30.10 in 10.0 mi NE 18.4 mph - 0.00 in   Overcast
9:53 AM 44.1 °F 37.1 °F 41.0 °F 89% 30.12 in 7.0 mi NNE 15.0 mph - 0.01 in Rain Light Rain
10:53 AM 44.1 °F 37.1 °F 41.0 °F 89% 30.13 in 10.0 mi North 15.0 mph - 0.00 in   Overcast
11:53 AM 44.1 °F 37.4 °F 41.0 °F 89% 30.12 in 10.0 mi North 13.8 mph - N/A   Overcast
12:53 PM 45.0 °F 38.9 °F 42.1 °F 90% 30.09 in 10.0 mi NNE 12.7 mph - N/A   Overcast
1:53 PM 45.0 °F 38.5 °F 42.1 °F 90% 30.06 in 10.0 mi North 13.8 mph - N/A   Overcast
2:53 PM 44.1 °F 36.5 °F 42.1 °F 93% 30.06 in 5.0 mi North 17.3 mph - N/A   Overcast
3:53 PM 44.1 °F 36.5 °F 42.1 °F 93% 30.07 in 4.0 mi North 17.3 mph - 0.01 in Rain Light Rain
4:53 PM 44.1 °F 35.9 °F 41.0 °F 89% 30.05 in 4.0 mi NNE 19.6 mph - 0.00 in Rain Light Rain
5:53 PM 44.1 °F 37.1 °F 41.0 °F 89% 30.06 in 10.0 mi NNE 15.0 mph - 0.01 in   Overcast
6:53 PM 44.1 °F 35.7 °F 41.0 °F 89% 30.01 in 10.0 mi ENE 20.7 mph - N/A   Overcast
7:53 PM 44.1 °F 37.1 °F 41.0 °F 89% 30.02 in 10.0 mi ENE 15.0 mph - N/A   Overcast
8:53 PM 44.1 °F 36.5 °F 41.0 °F 89% 30.03 in 5.0 mi NE 17.3 mph - 0.00 in Rain Light Rain
9:25 PM 43.0 °F 34.2 °F 39.9 °F 89% 30.08 in 2.0 mi North 20.7 mph - 0.09 in Rain Rain
9:34 PM 43.0 °F 34.0 °F 39.9 °F 89% 30.08 in 6.0 mi North 21.9 mph - 0.10 in Rain Light Rain
9:46 PM 42.1 °F 32.1 °F 39.9 °F 92% 30.08 in 4.0 mi North 25.3 mph - 0.13 in Rain , Thunderstorm Thunderstorms and Rain
9:53 PM 42.1 °F 32.6 °F 39.0 °F 89% 30.08 in 2.5 mi North 23.0 mph 32.2 mph 0.18 in Rain , Thunderstorm Heavy Thunderstorms and Rain
10:01 PM 42.1 °F 33.1 °F 39.0 °F 89% 30.08 in 2.5 mi North 20.7 mph - 0.05 in Rain Heavy Rain
10:11 PM 42.1 °F 33.1 °F 39.0 °F 89% 30.08 in 3.0 mi NNE 20.7 mph - 0.11 in Rain Heavy Rain
10:20 PM 42.1 °F 32.8 °F 39.0 °F 89% 30.06 in 5.0 mi NNE 21.9 mph - 0.12 in Rain Light Rain
10:34 PM 42.1 °F 32.6 °F 39.0 °F 89% 30.04 in 5.0 mi NE 23.0 mph - 0.15 in Rain Light Rain
10:45 PM 42.1 °F 33.1 °F 39.0 °F 89% 30.04 in 9.0 mi NE 20.7 mph - 0.15 in Rain , Thunderstorm Light Rain
10:53 PM 42.1 °F 32.8 °F 39.0 °F 89% 30.02 in 5.0 mi NE 21.9 mph - 0.17 in Rain , Thunderstorm Rain
11:02 PM 42.1 °F 32.8 °F 39.0 °F 89% 30.04 in 5.0 mi NNE 21.9 mph - 0.02 in Rain Light Rain
11:53 PM 42.1 °F 32.3 °F 39.0 °F 89% 29.96 in 7.0 mi NE 24.2 mph - 0.06 in Rain Light Rain